Zurück zum Katalog

STARLINK-30606

AktivKommunikationVLEO
NORAD 58109·PAYLOAD·🇺🇸 United States

Gestartet Oct 21, 2023 von Vandenberg Space Force Base

Loading…

Nächste Überflüge (nächste 24 Stunden)

TLE

AktuellSource: CelesTrak SupGP

Epoche: Sep 14, 2026, 20:41 UTC

1 58109C 23161N   26257.86229167  .00018696  00000+0  55256-3 0  2571
2 58109  53.1602   3.7864 0001193  72.6789  81.7289 15.34370626    16

Verfolge STARLINK-30606 in Echtzeit mit AllMySat

Download on the App Store